TANSEI 3 DEB

Satellite information

Favourite Embed

Satellite Type and Status

DEBRISIN ORBIT

Key statistics

Satellite TANSEI 3 DEB at a glance.

Uptime

17829

Days in orbit

Revolutions

≈ 10.8

Per day

Orbit

HEO

HEO

Inclination

65.7

Latest

Satellite identification and parameters

Extended collection of information and parameters for TANSEI 3 DEB.

Object identification

Identified? True

Debris? True

Object name: TANSEI 3 DEB

International designator: 1977-012K

Object number (NORAD): 14512

Object ID (CCSDS): 14512

Country: JAPAN (JPN)

Current information (Y/N): Y

RCS size: SMALL

Orbital parameters

Period: 133.723 minutes

Inclination: 65.7491 deg

SMA: 8662.274 km

Apoapsis: 3776.755 km

Periapsis: 791.523 km

RAAN: 328.629 deg

Eccentricy: 0.17231226

Argument of periapsis: 309.5052 deg

Mean anomaly: 36.545 deg

Mean motion: 10.76849137 rev/day

Mean motion (dot): 0.00000034 rev/day2

B* drag term: 0.00019697154 1/REarth

Two-line elements (TLE)

Creation date: Dec. 10, 2025, 10:40 a.m.

Reference frame: TEME

Reference center: EARTH

Epoch: Dec. 9, 2025, 10:21 p.m. UTC

TLE line 0: 0 TANSEI 3 DEB

TLE line 1: 1 14512U 77012K 25343.93153346 .00000034 00000-0 19697-3 0 9993

TLE line 2: 2 14512 65.7491 328.6290 1723123 309.5052 36.5450 10.76849137 79533

Live tracking on map

Real-time ground track for satellite TANSEI 3 DEB.

In-orbit conjunctions

A list of the most updated potential collisions computed for object TANSEI 3 DEB.

Target Orbit TCA Probability of collision Miss distance Type
FENGYUN 1C DEB SSO 2024-11-09 16:30:38 0.0001130324 750.0 (m) DEBRIS

Associated space launch

Japanese satellite used to test the new Mu-3H launch vehicle, experiment magnetic stabilization and ovserve UV radiation

TANSEI 3 DEB was lifted into orbit during the mission ‘Mu-3H | Tansei-3’, on board a Mu-3H space rocket.

The launch took place on Feb. 19, 1977, 5:15 a.m. from Mu Center.

For more information about the launch, click the button.

Launch to space Mu-3H | Tansei-3
Mu-3H | Tansei-3

Agency: N/A

Status: Launch Successful

Launch date: Feb. 19, 1977, 5:15 a.m. UTC

Rocket: Mu-3H

Launch pad: Mu Center

Location: Uchinoura Space Center, Japan

...

Latest news about this satellite

There are no fresh news available about this satellite. Check back as we update our databases every day.


Newsletter sign-up

Weekly statistics, charts and insights to help you stay on top of the space industry.